| time (UTC) | temp F | wind direction | speed MPH | gust MPH | rain 1hr in | rain 24hr in | rain mn in | humidity % | barometer mb |
| 20260510024004 | 53 | 177 | 0.0 | 2.0 | 0.00 | 0.53 | 0.53 | 95 | 1009.2 |
| 20260510022531 | 53 | 177 | 0.0 | 1.0 | 0.00 | 0.53 | 0.53 | 95 | 1009.2 |
| 20260510021525 | 53 | 177 | 0.0 | 2.0 | 0.00 | 0.53 | 0.53 | 95 | 1009.4 |
| 20260510021002 | 53 | 177 | 0.0 | 2.0 | 0.00 | 0.53 | 0.53 | 95 | 1009.5 |
| 20260510015524 | 53 | 177 | 0.0 | 0.0 | 0.00 | 0.53 | 0.53 | 95 | 1009.5 |
| 20260510014525 | 53 | 177 | 0.0 | 0.0 | 0.00 | 0.53 | 0.53 | 95 | 1009.6 |
| 20260510013525 | 53 | 177 | 0.0 | 0.0 | 0.00 | 0.53 | 0.53 | 95 | 1009.5 |
| 20260510012525 | 53 | 177 | 0.0 | 1.0 | 0.00 | 0.53 | 0.53 | 95 | 1009.4 |
| 20260510011524 | 53 | 177 | 0.0 | 3.0 | 0.00 | 0.53 | 0.53 | 95 | 1009.3 |
| 20260510010524 | 53 | 76 | 0.0 | 0.0 | 0.00 | 0.53 | 0.53 | 95 | 1009.1 |
| 20260510005525 | 53 | 57 | 0.0 | 0.0 | 0.00 | 0.53 | 0.53 | 95 | 1009.1 |
| 20260510004519 | 53 | 57 | 0.0 | 0.0 | 0.00 | 0.53 | 0.53 | 95 | 1009.2 |
| 20260510003519 | 53 | 57 | 0.0 | 0.0 | 0.00 | 0.53 | 0.53 | 95 | 1008.9 |
| 20260510002519 | 53 | 57 | 0.0 | 0.0 | 0.00 | 0.53 | 0.53 | 95 | 1008.7 |
| 20260510001518 | 53 | 57 | 0.0 | 0.0 | 0.01 | 0.53 | 0.53 | 95 | 1008.6 |
| 20260510000519 | 53 | 57 | 0.0 | 0.0 | 0.01 | 0.53 | 0.53 | 95 | 1008.6 |
| 20260509235948 | 53 | 57 | 0.0 | 0.0 | 0.01 | 0.53 | 0.53 | 95 | 1008.7 |
| 20260509234519 | 53 | 57 | 0.0 | 0.0 | 0.03 | 0.53 | 0.53 | 95 | 1008.7 |
| 20260509233520 | 53 | 57 | 0.0 | 0.0 | 0.04 | 0.53 | 0.53 | 95 | 1008.8 |
| 20260509232520 | 53 | 57 | 0.0 | 0.0 | 0.05 | 0.53 | 0.53 | 95 | 1009.0 |
| 20260509231513 | 53 | 57 | 0.0 | 0.0 | 0.05 | 0.52 | 0.52 | 95 | 1009.2 |
| 20260509230513 | 53 | 57 | 0.0 | 0.0 | 0.07 | 0.52 | 0.52 | 95 | 1009.2 |
| 20260509225953 | 53 | 57 | 0.0 | 0.0 | 0.07 | 0.52 | 0.52 | 95 | 1009.4 |
| 20260509224513 | 53 | 57 | 0.0 | 0.0 | 0.06 | 0.50 | 0.50 | 95 | 1009.3 |
| 20260509223511 | 53 | 57 | 0.0 | 0.0 | 0.06 | 0.49 | 0.49 | 95 | 1009.2 |
| 20260509222510 | 53 | 57 | 0.0 | 0.0 | 0.05 | 0.48 | 0.48 | 95 | 1009.4 |
| 20260509221511 | 53 | 57 | 0.0 | 0.0 | 0.05 | 0.47 | 0.47 | 95 | 1009.6 |
| 20260509220511 | 53 | 57 | 0.0 | 0.0 | 0.03 | 0.45 | 0.46 | 95 | 1009.7 |
| 20260509215510 | 53 | 57 | 0.0 | 0.0 | 0.04 | 0.45 | 0.45 | 95 | 1009.8 |
| 20260509214511 | 53 | 57 | 0.0 | 0.0 | 0.05 | 0.44 | 0.44 | 95 | 1009.8 |
| 20260509213511 | 53 | 57 | 0.0 | 0.0 | 0.05 | 0.43 | 0.43 | 95 | 1009.6 |
| 20260509212506 | 53 | 57 | 0.0 | 0.0 | 0.07 | 0.43 | 0.43 | 95 | 1009.6 |
| 20260509211506 | 53 | 57 | 0.0 | 0.0 | 0.08 | 0.42 | 0.42 | 94 | 1009.3 |
| 20260509210505 | 53 | 57 | 0.0 | 0.0 | 0.10 | 0.42 | 0.42 | 94 | 1009.3 |
| 20260509205504 | 53 | 57 | 0.0 | 0.0 | 0.10 | 0.41 | 0.41 | 94 | 1009.6 |
| 20260509204506 | 53 | 57 | 0.0 | 0.0 | 0.10 | 0.39 | 0.39 | 94 | 1009.6 |
| 20260509203459 | 53 | 57 | 0.0 | 0.0 | 0.15 | 0.38 | 0.38 | 94 | 1009.8 |
| 20260509202501 | 53 | 57 | 0.0 | 0.0 | 0.18 | 0.36 | 0.36 | 94 | 1009.8 |
| 20260509201501 | 53 | 57 | 0.0 | 0.0 | 0.22 | 0.34 | 0.34 | 94 | 1009.8 |
| 20260509200501 | 53 | 57 | 0.0 | 2.0 | 0.23 | 0.32 | 0.33 | 93 | 1009.9 |
| 20260509195459 | 53 | 57 | 0.0 | 2.0 | 0.24 | 0.31 | 0.31 | 93 | 1009.6 |
| 20260509194501 | 53 | 42 | 0.0 | 1.0 | 0.24 | 0.29 | 0.30 | 93 | 1009.8 |
| 20260509193500 | 53 | 42 | 0.0 | 1.0 | 0.18 | 0.23 | 0.23 | 92 | 1010.0 |
| 20260509192501 | 54 | 42 | 0.0 | 1.0 | 0.13 | 0.18 | 0.18 | 92 | 1010.0 |
| 20260509191939 | 54 | 42 | 0.0 | 1.0 | 0.07 | 0.12 | 0.13 | 91 | 1010.0 |
| 20260509190457 | 55 | 42 | 0.0 | 3.0 | 0.04 | 0.09 | 0.10 | 90 | 1009.7 |
| 20260509185943 | 55 | 58 | 0.0 | 1.0 | 0.02 | 0.07 | 0.08 | 89 | 1009.5 |
| 20260509184457 | 55 | 58 | 1.0 | 2.0 | 0.00 | 0.05 | 0.05 | 87 | 1009.6 |
| 20260509183457 | 55 | 61 | 1.0 | 4.0 | 0.00 | 0.05 | 0.05 | 87 | 1009.5 |
| 20260509182457 | 56 | 29 | 0.0 | 2.0 | 0.00 | 0.05 | 0.05 | 87 | 1009.4 |
| 20260509181455 | 56 | 29 | 1.0 | 4.0 | 0.00 | 0.05 | 0.05 | 86 | 1009.5 |
| 20260509180456 | 56 | 27 | 1.0 | 3.0 | 0.00 | 0.05 | 0.05 | 85 | 1009.4 |
| 20260509175456 | 56 | 28 | 1.0 | 3.0 | 0.00 | 0.05 | 0.05 | 86 | 1009.5 |
| 20260509174449 | 56 | 29 | 1.0 | 2.0 | 0.00 | 0.05 | 0.05 | 87 | 1009.7 |
| 20260509173921 | 55 | 28 | 0.0 | 3.0 | 0.00 | 0.05 | 0.05 | 87 | 1009.8 |
| 20260509172447 | 55 | 26 | 0.0 | 2.0 | 0.00 | 0.05 | 0.05 | 88 | 1010.1 |
| 20260509171447 | 54 | 26 | 1.0 | 2.0 | 0.00 | 0.05 | 0.05 | 89 | 1010.3 |
| 20260509170448 | 54 | 26 | 1.0 | 4.0 | 0.00 | 0.05 | 0.05 | 89 | 1010.5 |
| 20260509165450 | 54 | 28 | 0.0 | 1.0 | 0.00 | 0.05 | 0.05 | 89 | 1010.5 |
| 20260509164447 | 53 | 28 | 1.0 | 3.0 | 0.00 | 0.05 | 0.05 | 89 | 1010.2 |
| 20260509163449 | 53 | 15 | 1.0 | 2.0 | 0.00 | 0.05 | 0.05 | 89 | 1010.8 |
| 20260509162449 | 53 | 15 | 1.0 | 4.0 | 0.00 | 0.05 | 0.05 | 89 | 1010.8 |
| 20260509161443 | 53 | 15 | 1.0 | 3.0 | 0.00 | 0.05 | 0.05 | 89 | 1011.0 |
| 20260509160442 | 53 | 137 | 0.0 | 2.0 | 0.00 | 0.05 | 0.05 | 89 | 1011.1 |
| 20260509155442 | 52 | 137 | 0.0 | 2.0 | 0.00 | 0.05 | 0.05 | 89 | 1011.1 |
| 20260509154441 | 52 | 138 | 0.0 | 2.0 | 0.00 | 0.05 | 0.05 | 89 | 1011.0 |
| 20260509153918 | 52 | 138 | 0.0 | 2.0 | 0.00 | 0.05 | 0.05 | 90 | 1011.0 |
| 20260509152442 | 52 | 165 | 0.0 | 2.0 | 0.00 | 0.05 | 0.05 | 89 | 1011.4 |
| 20260509151443 | 51 | 165 | 1.0 | 4.0 | 0.00 | 0.05 | 0.05 | 88 | 1011.3 |
| 20260509150441 | 51 | 60 | 1.0 | 4.0 | 0.00 | 0.05 | 0.05 | 90 | 1011.2 |
| 20260509145442 | 51 | 68 | 0.0 | 1.0 | 0.00 | 0.05 | 0.05 | 91 | 1011.4 |
| 20260509144914 | 50 | 68 | 0.0 | 2.0 | 0.00 | 0.05 | 0.05 | 90 | 1011.4 |
| 20260509143434 | 50 | 68 | 1.0 | 3.0 | 0.00 | 0.05 | 0.05 | 91 | 1011.1 |
| 20260509142435 | 49 | 30 | 0.0 | 2.0 | 0.00 | 0.05 | 0.05 | 91 | 1011.0 |
| 20260509141914 | 49 | 30 | 0.0 | 2.0 | 0.00 | 0.05 | 0.05 | 91 | 1011.0 |
| 20260509140910 | 48 | 30 | 1.0 | 2.0 | 0.00 | 0.05 | 0.05 | 91 | 1011.1 |
| 20260509135434 | 48 | 30 | 0.0 | 2.0 | 0.00 | 0.05 | 0.05 | 92 | 1011.3 |
| 20260509134435 | 48 | 30 | 0.0 | 3.0 | 0.00 | 0.05 | 0.05 | 91 | 1011.5 |
| 20260509133433 | 47 | 30 | 1.0 | 3.0 | 0.00 | 0.05 | 0.05 | 91 | 1011.5 |
| 20260509132436 | 47 | 355 | 0.0 | 2.0 | 0.00 | 0.05 | 0.05 | 92 | 1011.6 |
| 20260509131428 | 46 | 355 | 0.0 | 3.0 | 0.01 | 0.05 | 0.05 | 92 | 1011.8 |
| 20260509130430 | 46 | 355 | 0.0 | 2.0 | 0.01 | 0.05 | 0.05 | 92 | 1011.9 |
| 20260509125429 | 46 | 355 | 0.0 | 3.0 | 0.01 | 0.05 | 0.05 | 92 | 1012.0 |
| 20260509124430 | 45 | 355 | 0.0 | 1.0 | 0.01 | 0.05 | 0.05 | 93 | 1012.1 |
| 20260509123922 | 45 | 355 | 0.0 | 2.0 | 0.01 | 0.05 | 0.05 | 93 | 1012.1 |
| 20260509122429 | 45 | 355 | 1.0 | 3.0 | 0.01 | 0.05 | 0.05 | 93 | 1012.1 |
| 20260509121427 | 44 | 355 | 0.0 | 2.0 | 0.00 | 0.04 | 0.04 | 93 | 1012.2 |
| 20260509120428 | 44 | 355 | 0.0 | 2.0 | 0.00 | 0.04 | 0.04 | 93 | 1012.5 |
| 20260509115426 | 44 | 355 | 1.0 | 3.0 | 0.00 | 0.04 | 0.04 | 93 | 1012.3 |
| 20260509114426 | 44 | 348 | 0.0 | 2.0 | 0.00 | 0.04 | 0.04 | 94 | 1012.4 |
| 20260509113910 | 44 | 348 | 0.0 | 2.0 | 0.00 | 0.04 | 0.04 | 94 | 1012.3 |
| 20260509112427 | 44 | 348 | 0.0 | 3.0 | 0.00 | 0.04 | 0.04 | 94 | 1012.2 |
| 20260509111428 | 44 | 344 | 0.0 | 0.0 | 0.00 | 0.04 | 0.04 | 94 | 1012.4 |
| 20260509110428 | 44 | 344 | 0.0 | 0.0 | 0.00 | 0.04 | 0.04 | 93 | 1012.5 |
| 20260509105428 | 44 | 344 | 0.0 | 1.0 | 0.00 | 0.04 | 0.04 | 93 | 1012.5 |
| 20260509104424 | 44 | 344 | 0.0 | 1.0 | 0.00 | 0.04 | 0.04 | 93 | 1012.3 |
| 20260509103902 | 44 | 344 | 0.0 | 1.0 | 0.00 | 0.04 | 0.04 | 93 | 1012.3 |
| 20260509102422 | 44 | 344 | 0.0 | 1.0 | 0.00 | 0.04 | 0.04 | 93 | 1012.3 |
| 20260509101421 | 44 | 344 | 0.0 | 2.0 | 0.00 | 0.04 | 0.04 | 93 | 1012.2 |
| 20260509100822 | 44 | 343 | 0.0 | 3.0 | 0.00 | 0.04 | 0.04 | 92 | 1012.3 |
| 20260509100456 | 44 | 344 | 0.0 | 3.0 | 0.00 | 0.04 | 0.04 | 93 | 1012.2 |
| 20260509095347 | 44 | 340 | 0.0 | 1.0 | 0.01 | 0.04 | 0.04 | 92 | 1012.2 |
| 20260509093419 | 44 | 340 | 0.0 | 0.0 | 0.02 | 0.04 | 0.04 | 92 | 1012.1 |
| 20260509092414 | 44 | 340 | 0.0 | 0.0 | 0.04 | 0.04 | 0.04 | 91 | 1011.9 |
| 20260509091413 | 44 | 340 | 0.0 | 1.0 | 0.04 | 0.04 | 0.04 | 91 | 1011.7 |
| 20260509090412 | 44 | 340 | 0.0 | 0.0 | 0.04 | 0.04 | 0.04 | 90 | 1011.7 |
| 20260509085414 | 44 | 340 | 0.0 | 0.0 | 0.04 | 0.04 | 0.04 | 90 | 1011.6 |
| 20260509084856 | 44 | 340 | 0.0 | 0.0 | 0.03 | 0.03 | 0.03 | 89 | 1011.7 |
| 20260509083412 | 44 | 340 | 0.0 | 0.0 | 0.02 | 0.02 | 0.02 | 89 | 1011.8 |
| 20260509082412 | 45 | 340 | 0.0 | 0.0 | 0.00 | 0.00 | 0.01 | 87 | 1011.7 |
| 20260509081413 | 44 | 340 | 0.0 | 0.0 | 0.00 | 0.00 | 0.00 | 86 | 1011.6 |
| 20260509080415 | 44 | 340 | 0.0 | 0.0 | 0.00 | 0.00 | 0.00 | 86 | 1011.4 |
| 20260509075410 | 44 | 340 | 0.0 | 0.0 | 0.00 | 0.00 | 0.00 | 86 | 1011.4 |
| 20260509074859 | 44 | 340 | 0.0 | 0.0 | 0.00 | 0.00 | 0.00 | 86 | 1011.3 |
| 20260509073411 | 44 | 340 | 0.0 | 0.0 | 0.00 | 0.00 | 0.00 | 86 | 1011.2 |
| 20260509072411 | 44 | 340 | 0.0 | 0.0 | 0.00 | 0.00 | 0.00 | 85 | 1011.1 |
| 20260509071410 | 44 | 340 | 0.0 | 0.0 | 0.00 | 0.00 | 0.00 | 86 | 1011.3 |
| 20260509070408 | 44 | 340 | 0.0 | 0.0 | 0.00 | 0.00 | 0.00 | 86 | 1011.4 |
| 20260509065408 | 44 | 340 | 0.0 | 0.0 | 0.00 | 0.00 | 0.00 | 86 | 1011.4 |
| 20260509064854 | 44 | 340 | 0.0 | 0.0 | 0.00 | 0.00 | 0.00 | 86 | 1011.5 |
| 20260509063408 | 44 | 340 | 0.0 | 0.0 | 0.00 | 0.00 | 0.00 | 86 | 1011.7 |
| 20260509062409 | 44 | 340 | 0.0 | 0.0 | 0.00 | 0.00 | 0.00 | 87 | 1011.7 |
| 20260509061408 | 44 | 340 | 0.0 | 0.0 | 0.00 | 0.00 | 0.00 | 86 | 1011.8 |
| 20260509060409 | 44 | 340 | 0.0 | 0.0 | 0.00 | 0.00 | 0.00 | 86 | 1011.7 |
| 20260509055408 | 43 | 340 | 0.0 | 0.0 | 0.00 | 0.00 | 0.00 | 87 | 1012.0 |
| 20260509055323 | 43 | 340 | 0.0 | 0.0 | 0.00 | 0.00 | 0.00 | 86 | 1012.1 |
| 20260509053409 | 43 | 340 | 0.0 | 0.0 | 0.00 | 0.00 | 0.00 | 86 | 1012.1 |
| 20260509052411 | 43 | 340 | 0.0 | 0.0 | 0.00 | 0.00 | 0.00 | 85 | 1012.3 |
| 20260509051409 | 44 | 340 | 0.0 | 0.0 | 0.00 | 0.00 | 0.00 | 85 | 1012.2 |
| 20260509050404 | 44 | 340 | 0.0 | 0.0 | 0.00 | 0.00 | 0.00 | 84 | 1012.1 |
| 20260509045842 | 44 | 340 | 0.0 | 0.0 | 0.00 | 0.00 | 0.00 | 82 | 1012.0 |
| 20260509044843 | 44 | 340 | 0.0 | 0.0 | 0.00 | 0.00 | 0.00 | 81 | 1012.3 |
| 20260509043403 | 44 | 340 | 0.0 | 0.0 | 0.00 | 0.00 | 0.00 | 81 | 1012.1 |
| 20260509042405 | 44 | 340 | 0.0 | 0.0 | 0.00 | 0.00 | 0.00 | 81 | 1012.2 |
| 20260509041839 | 44 | 340 | 0.0 | 0.0 | 0.00 | 0.00 | 0.00 | 81 | 1012.1 |
| 20260509040402 | 43 | 340 | 0.0 | 0.0 | 0.00 | 0.00 | 0.00 | 81 | 1011.9 |
| 20260509035402 | 43 | 340 | 0.0 | 0.0 | 0.00 | 0.00 | 0.00 | 80 | 1011.9 |
| 20260509034400 | 43 | 340 | 0.0 | 0.0 | 0.00 | 0.00 | 0.00 | 80 | 1011.7 |
| 20260509033401 | 43 | 340 | 0.0 | 0.0 | 0.00 | 0.00 | 0.00 | 80 | 1011.6 |
| 20260509032401 | 44 | 340 | 0.0 | 0.0 | 0.00 | 0.00 | 0.00 | 80 | 1011.7 |
| 20260509031400 | 44 | 340 | 0.0 | 0.0 | 0.00 | 0.00 | 0.00 | 79 | 1011.7 |
| 20260509030400 | 44 | 340 | 0.0 | 1.0 | 0.00 | 0.00 | 0.00 | 78 | 1011.7 |
| 20260509025402 | 44 | 340 | 0.0 | 2.0 | 0.00 | 0.00 | 0.00 | 78 | 1011.4 |